| time (UTC) | temp F | wind direction | speed MPH | gust MPH | rain 1hr in | rain 24hr in | rain mn in | humidity % | barometer mb |
| 20260507224045 | 61 | 135 | 0.0 | 0.0 | 0.00 | 0.00 | 0.00 | 82 | 1009.0 |
| 20260507223522 | 61 | 152 | 0.0 | 4.0 | 0.00 | 0.00 | 0.00 | 82 | 1008.9 |
| 20260507223519 | 61 | 0.0 | 0.0 | 0.00 | 0.00 | 0.00 | 82 | 1009.1 | |
| 20260507223038 | 61 | 0.0 | 0.0 | 0.00 | 0.00 | 0.00 | 82 | 1009.1 | |
| 20260507223018 | 62 | 0.0 | 0.0 | 0.00 | 0.00 | 0.00 | 81 | 1009.2 | |
| 20260507222523 | 62 | 0.0 | 0.0 | 0.00 | 0.00 | 0.00 | 81 | 1009.2 | |
| 20260507222519 | 62 | 0.0 | 0.0 | 0.00 | 0.00 | 0.00 | 81 | 1009.2 | |
| 20260507222017 | 62 | 0.0 | 0.0 | 0.00 | 0.00 | 0.00 | 81 | 1009.2 | |
| 20260507221519 | 62 | 0.0 | 0.0 | 0.00 | 0.00 | 0.00 | 81 | 1009.0 | |
| 20260507221023 | 62 | 0.0 | 0.0 | 0.00 | 0.00 | 0.00 | 81 | 1009.0 | |
| 20260507221020 | 62 | 0.0 | 0.0 | 0.00 | 0.00 | 0.00 | 81 | 1009.0 | |
| 20260507220520 | 62 | 0.0 | 0.0 | 0.00 | 0.00 | 0.00 | 81 | 1009.0 | |
| 20260507220019 | 62 | 0.0 | 0.0 | 0.00 | 0.00 | 0.00 | 81 | 1009.0 | |
| 20260507215535 | 62 | 0.0 | 0.0 | 0.00 | 0.00 | 0.00 | 81 | 1009.1 | |
| 20260507215518 | 62 | 0.0 | 0.0 | 0.00 | 0.00 | 0.00 | 81 | 1009.1 | |
| 20260507215023 | 62 | 0.0 | 0.0 | 0.00 | 0.00 | 0.00 | 81 | 1009.3 | |
| 20260507214520 | 62 | 0.0 | 0.0 | 0.00 | 0.00 | 0.00 | 81 | 1009.3 | |
| 20260507214043 | 62 | 0.0 | 0.0 | 0.00 | 0.00 | 0.00 | 80 | 1009.2 | |
| 20260507214019 | 62 | 0.0 | 0.0 | 0.00 | 0.00 | 0.00 | 80 | 1009.1 | |
| 20260507213519 | 62 | 0.0 | 0.0 | 0.00 | 0.00 | 0.00 | 80 | 1009.3 | |
| 20260507213021 | 62 | 0.0 | 0.0 | 0.00 | 0.00 | 0.00 | 80 | 1009.4 | |
| 20260507213017 | 62 | 0.0 | 0.0 | 0.00 | 0.00 | 0.00 | 80 | 1009.3 | |
| 20260507212519 | 62 | 0.0 | 0.0 | 0.00 | 0.00 | 0.00 | 81 | 1009.5 | |
| 20260507212022 | 62 | 158 | 0.0 | 2.0 | 0.00 | 0.00 | 0.00 | 81 | 1009.9 |
| 20260507212020 | 62 | 0.0 | 0.0 | 0.00 | 0.00 | 0.00 | 81 | 1009.5 | |
| 20260507211525 | 62 | 158 | 0.0 | 2.0 | 0.00 | 0.00 | 0.00 | 81 | 1009.9 |
| 20260507211519 | 62 | 113 | 0.0 | 3.0 | 0.00 | 0.00 | 0.00 | 81 | 1009.9 |
| 20260507211020 | 62 | 113 | 0.0 | 3.0 | 0.00 | 0.00 | 0.00 | 81 | 1009.9 |
| 20260507210520 | 62 | 138 | 1.0 | 6.0 | 0.00 | 0.00 | 0.00 | 81 | 1009.7 |
| 20260507210106 | 62 | 138 | 1.0 | 6.0 | 0.00 | 0.00 | 0.00 | 81 | 1009.7 |
| 20260507210020 | 62 | 28 | 0.0 | 3.0 | 0.00 | 0.00 | 0.00 | 80 | 1009.6 |
| 20260507205518 | 62 | 28 | 0.0 | 3.0 | 0.00 | 0.00 | 0.00 | 80 | 1009.6 |
| 20260507205022 | 62 | 0.0 | 0.0 | 0.00 | 0.00 | 0.00 | 80 | 1009.5 | |
| 20260507204519 | 62 | 0.0 | 0.0 | 0.00 | 0.00 | 0.00 | 80 | 1009.3 | |
| 20260507204027 | 62 | 0.0 | 0.0 | 0.00 | 0.00 | 0.00 | 80 | 1009.2 | |
| 20260507204020 | 62 | 0.0 | 0.0 | 0.00 | 0.00 | 0.00 | 80 | 1009.2 | |
| 20260507203519 | 62 | 0.0 | 0.0 | 0.00 | 0.00 | 0.00 | 80 | 1009.3 | |
| 20260507203021 | 62 | 0.0 | 0.0 | 0.00 | 0.00 | 0.00 | 80 | 1009.4 | |
| 20260507203018 | 62 | 0.0 | 0.0 | 0.00 | 0.00 | 0.00 | 80 | 1009.3 | |
| 20260507202527 | 62 | 0.0 | 0.0 | 0.00 | 0.00 | 0.00 | 80 | 1009.4 | |
| 20260507202519 | 62 | 149 | 0.0 | 5.0 | 0.00 | 0.00 | 0.00 | 80 | 1009.4 |
| 20260507202023 | 62 | 149 | 0.0 | 5.0 | 0.00 | 0.00 | 0.00 | 80 | 1009.4 |
| 20260507202021 | 62 | 0 | 0.0 | 5.0 | 0.00 | 0.00 | 0.00 | 79 | 1009.3 |
| 20260507201522 | 62 | 0 | 0.0 | 5.0 | 0.00 | 0.00 | 0.00 | 79 | 1009.3 |
| 20260507201024 | 62 | 23 | 0.0 | 2.0 | 0.00 | 0.00 | 0.00 | 79 | 1009.4 |
| 20260507201021 | 62 | 293 | 0.0 | 3.0 | 0.00 | 0.00 | 0.00 | 79 | 1009.4 |
| 20260507200520 | 62 | 293 | 0.0 | 3.0 | 0.00 | 0.00 | 0.00 | 79 | 1009.4 |
| 20260507200518 | 62 | 135 | 0.0 | 4.0 | 0.00 | 0.00 | 0.00 | 79 | 1009.5 |
| 20260507200040 | 62 | 135 | 0.0 | 4.0 | 0.00 | 0.00 | 0.00 | 79 | 1009.5 |
| 20260507195537 | 62 | 0.0 | 0.0 | 0.00 | 0.00 | 0.00 | 79 | 1009.4 | |
| 20260507195519 | 62 | 0.0 | 0.0 | 0.00 | 0.00 | 0.00 | 79 | 1009.4 | |
| 20260507195021 | 62 | 78 | 0.0 | 4.0 | 0.00 | 0.00 | 0.00 | 78 | 1009.3 |
| 20260507195019 | 62 | 122 | 0.0 | 4.0 | 0.00 | 0.00 | 0.00 | 78 | 1009.4 |
| 20260507194539 | 62 | 78 | 0.0 | 4.0 | 0.00 | 0.00 | 0.00 | 78 | 1009.3 |
| 20260507194019 | 62 | 315 | 0.0 | 1.0 | 0.00 | 0.00 | 0.00 | 78 | 1009.2 |
| 20260507193524 | 62 | 148 | 0.0 | 2.0 | 0.00 | 0.00 | 0.00 | 78 | 1009.2 |
| 20260507193517 | 62 | 0.0 | 0.0 | 0.00 | 0.00 | 0.00 | 78 | 1009.1 | |
| 20260507193018 | 62 | 0.0 | 0.0 | 0.00 | 0.00 | 0.00 | 78 | 1009.1 | |
| 20260507192518 | 62 | 68 | 0.0 | 4.0 | 0.00 | 0.00 | 0.00 | 77 | 1008.8 |
| 20260507192059 | 62 | 68 | 0.0 | 4.0 | 0.00 | 0.00 | 0.00 | 77 | 1008.8 |
| 20260507191522 | 62 | 68 | 0.0 | 1.0 | 0.00 | 0.00 | 0.00 | 77 | 1009.0 |
| 20260507191020 | 62 | 335 | 0.0 | 4.0 | 0.00 | 0.00 | 0.00 | 77 | 1009.0 |
| 20260507190518 | 62 | 82 | 1.0 | 6.0 | 0.00 | 0.00 | 0.00 | 77 | 1009.0 |
| 20260507190515 | 62 | 82 | 1.0 | 6.0 | 0.00 | 0.00 | 0.00 | 77 | 1009.0 |
| 20260507190024 | 62 | 10 | 0.0 | 3.0 | 0.00 | 0.00 | 0.00 | 77 | 1009.1 |
| 20260507190020 | 62 | 50 | 1.0 | 6.0 | 0.00 | 0.00 | 0.00 | 77 | 1009.0 |
| 20260507185540 | 62 | 50 | 1.0 | 6.0 | 0.00 | 0.00 | 0.00 | 77 | 1009.0 |
| 20260507185519 | 62 | 133 | 1.0 | 7.0 | 0.00 | 0.00 | 0.00 | 77 | 1009.0 |
| 20260507185019 | 62 | 133 | 1.0 | 7.0 | 0.00 | 0.00 | 0.00 | 77 | 1009.0 |
| 20260507184524 | 62 | 113 | 0.0 | 1.0 | 0.00 | 0.00 | 0.00 | 77 | 1009.0 |
| 20260507184020 | 62 | 68 | 1.0 | 7.0 | 0.00 | 0.00 | 0.00 | 77 | 1008.8 |
| 20260507184018 | 62 | 0.0 | 0.0 | 0.00 | 0.00 | 0.00 | 77 | 1008.9 | |
| 20260507183540 | 62 | 68 | 1.0 | 7.0 | 0.00 | 0.00 | 0.00 | 77 | 1008.8 |
| 20260507183518 | 62 | 60 | 1.0 | 5.0 | 0.00 | 0.00 | 0.00 | 77 | 1008.8 |
| 20260507183024 | 62 | 60 | 1.0 | 5.0 | 0.00 | 0.00 | 0.00 | 77 | 1008.8 |
| 20260507183018 | 62 | 53 | 2.0 | 6.0 | 0.00 | 0.00 | 0.00 | 77 | 1008.9 |
| 20260507182519 | 62 | 53 | 2.0 | 6.0 | 0.00 | 0.00 | 0.00 | 77 | 1008.9 |
| 20260507182515 | 62 | 53 | 2.0 | 6.0 | 0.00 | 0.00 | 0.00 | 77 | 1008.9 |
| 20260507182018 | 62 | 25 | 2.0 | 6.0 | 0.00 | 0.00 | 0.00 | 77 | 1009.0 |
| 20260507181520 | 62 | 138 | 1.0 | 6.0 | 0.00 | 0.00 | 0.00 | 77 | 1009.1 |
| 20260507181023 | 62 | 138 | 1.0 | 6.0 | 0.00 | 0.00 | 0.00 | 77 | 1009.1 |
| 20260507181019 | 62 | 64 | 2.0 | 8.0 | 0.00 | 0.00 | 0.00 | 77 | 1009.2 |
| 20260507180519 | 62 | 117 | 1.0 | 5.0 | 0.00 | 0.00 | 0.00 | 77 | 1009.1 |
| 20260507180042 | 62 | 117 | 1.0 | 5.0 | 0.00 | 0.00 | 0.00 | 77 | 1009.1 |
| 20260507180018 | 62 | 155 | 3.0 | 6.0 | 0.00 | 0.00 | 0.00 | 77 | 1009.1 |
| 20260507175522 | 62 | 155 | 3.0 | 6.0 | 0.00 | 0.00 | 0.00 | 77 | 1009.1 |
| 20260507175519 | 62 | 115 | 2.0 | 7.0 | 0.00 | 0.00 | 0.00 | 77 | 1009.3 |
| 20260507175019 | 62 | 115 | 2.0 | 7.0 | 0.00 | 0.00 | 0.00 | 77 | 1009.3 |
| 20260507175015 | 62 | 115 | 2.0 | 7.0 | 0.00 | 0.00 | 0.00 | 77 | 1009.3 |
| 20260507174521 | 62 | 132 | 2.0 | 8.0 | 0.00 | 0.00 | 0.00 | 77 | 1009.3 |
| 20260507174021 | 62 | 84 | 2.0 | 8.0 | 0.00 | 0.00 | 0.00 | 77 | 1009.3 |
| 20260507173520 | 62 | 93 | 2.0 | 5.0 | 0.00 | 0.00 | 0.00 | 77 | 1009.5 |
| 20260507173518 | 62 | 66 | 3.0 | 8.0 | 0.00 | 0.00 | 0.00 | 77 | 1009.6 |
| 20260507173023 | 62 | 66 | 3.0 | 8.0 | 0.00 | 0.00 | 0.00 | 77 | 1009.6 |
| 20260507173020 | 62 | 151 | 2.0 | 10.0 | 0.00 | 0.00 | 0.00 | 77 | 1009.5 |
| 20260507172523 | 62 | 151 | 2.0 | 10.0 | 0.00 | 0.00 | 0.00 | 77 | 1009.5 |
| 20260507172518 | 63 | 82 | 2.0 | 8.0 | 0.00 | 0.00 | 0.00 | 76 | 1009.5 |
| 20260507172026 | 63 | 82 | 2.0 | 8.0 | 0.00 | 0.00 | 0.00 | 76 | 1009.5 |
| 20260507172018 | 63 | 145 | 4.0 | 19.0 | 0.00 | 0.00 | 0.00 | 76 | 1009.5 |
| 20260507171519 | 63 | 145 | 4.0 | 19.0 | 0.00 | 0.00 | 0.00 | 76 | 1009.5 |
| 20260507171024 | 63 | 105 | 3.0 | 8.0 | 0.00 | 0.00 | 0.00 | 76 | 1009.6 |
| 20260507171021 | 63 | 134 | 2.0 | 6.0 | 0.00 | 0.00 | 0.00 | 76 | 1009.5 |
| 20260507170522 | 63 | 134 | 2.0 | 6.0 | 0.00 | 0.00 | 0.00 | 76 | 1009.5 |
| 20260507170518 | 63 | 127 | 3.0 | 8.0 | 0.00 | 0.00 | 0.00 | 75 | 1009.4 |
| 20260507170019 | 63 | 127 | 3.0 | 8.0 | 0.00 | 0.00 | 0.00 | 75 | 1009.4 |
| 20260507170015 | 63 | 127 | 3.0 | 8.0 | 0.00 | 0.00 | 0.00 | 75 | 1009.4 |
| 20260507165524 | 63 | 159 | 4.0 | 8.0 | 0.00 | 0.00 | 0.00 | 75 | 1009.3 |
| 20260507165519 | 63 | 139 | 3.0 | 11.0 | 0.00 | 0.00 | 0.00 | 75 | 1009.2 |
| 20260507165020 | 63 | 141 | 4.0 | 9.0 | 0.00 | 0.00 | 0.00 | 75 | 1009.0 |
| 20260507165018 | 63 | 139 | 3.0 | 11.0 | 0.00 | 0.00 | 0.00 | 75 | 1009.2 |
| 20260507164518 | 63 | 141 | 4.0 | 9.0 | 0.00 | 0.00 | 0.00 | 75 | 1009.0 |
| 20260507164021 | 63 | 137 | 3.0 | 11.0 | 0.00 | 0.00 | 0.00 | 75 | 1009.0 |
| 20260507164019 | 63 | 135 | 3.0 | 7.0 | 0.00 | 0.00 | 0.00 | 74 | 1009.1 |
| 20260507163520 | 63 | 135 | 3.0 | 7.0 | 0.00 | 0.00 | 0.00 | 74 | 1009.1 |
| 20260507163518 | 63 | 90 | 4.0 | 12.0 | 0.00 | 0.00 | 0.00 | 74 | 1009.0 |
| 20260507163020 | 63 | 90 | 4.0 | 12.0 | 0.00 | 0.00 | 0.00 | 74 | 1009.0 |
| 20260507163015 | 63 | 90 | 4.0 | 12.0 | 0.00 | 0.00 | 0.00 | 74 | 1009.0 |
| 20260507162523 | 63 | 120 | 4.0 | 8.0 | 0.00 | 0.00 | 0.00 | 74 | 1009.2 |
| 20260507162519 | 63 | 144 | 3.0 | 8.0 | 0.00 | 0.00 | 0.00 | 74 | 1009.1 |
| 20260507162025 | 63 | 144 | 3.0 | 8.0 | 0.00 | 0.00 | 0.00 | 74 | 1009.1 |
| 20260507162019 | 63 | 147 | 5.0 | 10.0 | 0.00 | 0.00 | 0.00 | 74 | 1009.1 |
| 20260507161515 | 63 | 147 | 5.0 | 10.0 | 0.00 | 0.00 | 0.00 | 74 | 1009.1 |
| 20260507161019 | 63 | 134 | 4.0 | 10.0 | 0.00 | 0.00 | 0.00 | 73 | 1008.9 |
| 20260507161017 | 63 | 137 | 5.0 | 9.0 | 0.00 | 0.00 | 0.00 | 74 | 1009.1 |
| 20260507160522 | 63 | 134 | 4.0 | 10.0 | 0.00 | 0.00 | 0.00 | 73 | 1008.9 |
| 20260507160519 | 63 | 151 | 6.0 | 21.0 | 0.00 | 0.00 | 0.00 | 73 | 1009.0 |
| 20260507160023 | 63 | 151 | 6.0 | 21.0 | 0.00 | 0.00 | 0.00 | 73 | 1009.0 |
| 20260507160020 | 63 | 108 | 5.0 | 22.0 | 0.00 | 0.00 | 0.00 | 72 | 1009.2 |
| 20260507155524 | 63 | 108 | 5.0 | 22.0 | 0.00 | 0.00 | 0.00 | 72 | 1009.2 |
| 20260507155519 | 63 | 139 | 6.0 | 24.0 | 0.00 | 0.00 | 0.00 | 72 | 1009.3 |
| 20260507155026 | 63 | 139 | 6.0 | 24.0 | 0.00 | 0.00 | 0.00 | 72 | 1009.3 |
| 20260507155020 | 63 | 142 | 3.0 | 9.0 | 0.00 | 0.00 | 0.00 | 72 | 1009.3 |
| 20260507154523 | 63 | 142 | 3.0 | 9.0 | 0.00 | 0.00 | 0.00 | 72 | 1009.3 |
| 20260507154020 | 63 | 137 | 6.0 | 19.0 | 0.00 | 0.00 | 0.00 | 72 | 1009.2 |
| 20260507154018 | 64 | 160 | 5.0 | 10.0 | 0.00 | 0.00 | 0.00 | 72 | 1009.2 |
| 20260507153519 | 64 | 139 | 4.0 | 9.0 | 0.00 | 0.00 | 0.00 | 71 | 1009.1 |
| 20260507153517 | 64 | 160 | 5.0 | 10.0 | 0.00 | 0.00 | 0.00 | 72 | 1009.2 |
| 20260507153025 | 64 | 139 | 4.0 | 9.0 | 0.00 | 0.00 | 0.00 | 71 | 1009.1 |
| 20260507153020 | 64 | 108 | 4.0 | 10.0 | 0.00 | 0.00 | 0.00 | 70 | 1009.4 |
| 20260507152525 | 64 | 108 | 4.0 | 10.0 | 0.00 | 0.00 | 0.00 | 70 | 1009.4 |
| 20260507152518 | 64 | 111 | 5.0 | 12.0 | 0.00 | 0.00 | 0.00 | 70 | 1009.3 |
| 20260507152106 | 64 | 111 | 5.0 | 12.0 | 0.00 | 0.00 | 0.00 | 70 | 1009.3 |
| 20260507152018 | 64 | 137 | 4.0 | 12.0 | 0.00 | 0.00 | 0.00 | 70 | 1009.1 |
| 20260507151543 | 64 | 137 | 4.0 | 12.0 | 0.00 | 0.00 | 0.00 | 70 | 1009.1 |
| 20260507151039 | 64 | 131 | 5.0 | 11.0 | 0.00 | 0.00 | 0.00 | 69 | 1009.2 |
| 20260507151020 | 64 | 122 | 4.0 | 11.0 | 0.00 | 0.00 | 0.00 | 69 | 1009.3 |
| 20260507150519 | 64 | 105 | 2.0 | 9.0 | 0.00 | 0.00 | 0.00 | 69 | 1009.0 |
| 20260507150025 | 64 | 105 | 2.0 | 9.0 | 0.00 | 0.00 | 0.00 | 69 | 1009.0 |
| 20260507150018 | 64 | 123 | 4.0 | 10.0 | 0.00 | 0.00 | 0.00 | 69 | 1009.3 |
| 20260507145519 | 64 | 123 | 4.0 | 10.0 | 0.00 | 0.00 | 0.00 | 69 | 1009.3 |
| 20260507145056 | 64 | 99 | 4.0 | 9.0 | 0.00 | 0.00 | 0.00 | 68 | 1009.3 |
| 20260507145020 | 64 | 99 | 4.0 | 9.0 | 0.00 | 0.00 | 0.00 | 68 | 1009.3 |
| 20260507144524 | 64 | 77 | 3.0 | 9.0 | 0.00 | 0.00 | 0.00 | 67 | 1009.3 |
| 20260507144519 | 65 | 108 | 3.0 | 7.0 | 0.00 | 0.00 | 0.00 | 67 | 1009.2 |
| 20260507144040 | 65 | 108 | 3.0 | 7.0 | 0.00 | 0.00 | 0.00 | 67 | 1009.2 |
| 20260507143525 | 65 | 127 | 5.0 | 21.0 | 0.00 | 0.00 | 0.00 | 66 | 1009.3 |
| 20260507143519 | 65 | 117 | 4.0 | 9.0 | 0.00 | 0.00 | 0.00 | 66 | 1009.4 |
| 20260507143022 | 65 | 117 | 4.0 | 9.0 | 0.00 | 0.00 | 0.00 | 66 | 1009.4 |
| 20260507143019 | 65 | 115 | 5.0 | 11.0 | 0.00 | 0.00 | 0.00 | 66 | 1009.6 |
| 20260507142525 | 65 | 115 | 5.0 | 11.0 | 0.00 | 0.00 | 0.00 | 66 | 1009.6 |
| 20260507142519 | 65 | 115 | 5.0 | 11.0 | 0.00 | 0.00 | 0.00 | 66 | 1009.5 |
| 20260507142019 | 65 | 83 | 5.0 | 11.0 | 0.00 | 0.00 | 0.00 | 65 | 1009.5 |
| 20260507141812 | 65 | 97 | 5.0 | 10.0 | 0.00 | 0.00 | 0.00 | 64 | 1009.9 |
| 20260507141519 | 65 | 83 | 5.0 | 11.0 | 0.00 | 0.00 | 0.00 | 65 | 1009.5 |
| 20260507141021 | 65 | 113 | 6.0 | 12.0 | 0.00 | 0.00 | 0.00 | 65 | 1009.8 |
| 20260507140518 | 65 | 119 | 3.0 | 9.0 | 0.00 | 0.00 | 0.00 | 65 | 1009.8 |
| 20260507140024 | 65 | 97 | 5.0 | 10.0 | 0.00 | 0.00 | 0.00 | 64 | 1009.9 |
| 20260507140018 | 65 | 137 | 5.0 | 11.0 | 0.00 | 0.00 | 0.00 | 64 | 1009.8 |
| 20260507135524 | 65 | 137 | 5.0 | 11.0 | 0.00 | 0.00 | 0.00 | 64 | 1009.8 |
| 20260507135519 | 65 | 122 | 4.0 | 10.0 | 0.00 | 0.00 | 0.00 | 64 | 1009.8 |
| 20260507135023 | 65 | 122 | 4.0 | 10.0 | 0.00 | 0.00 | 0.00 | 64 | 1009.8 |
| 20260507135018 | 65 | 72 | 5.0 | 11.0 | 0.00 | 0.00 | 0.00 | 63 | 1010.0 |
| 20260507134517 | 65 | 72 | 5.0 | 11.0 | 0.00 | 0.00 | 0.00 | 63 | 1010.0 |
| 20260507134020 | 66 | 106 | 4.0 | 11.0 | 0.00 | 0.00 | 0.00 | 62 | 1010.1 |
| 20260507134017 | 66 | 139 | 4.0 | 11.0 | 0.00 | 0.00 | 0.00 | 62 | 1010.0 |
| 20260507133523 | 66 | 106 | 4.0 | 11.0 | 0.00 | 0.00 | 0.00 | 62 | 1010.1 |
| 20260507133519 | 65 | 130 | 4.0 | 8.0 | 0.00 | 0.00 | 0.00 | 62 | 1010.1 |
| 20260507133022 | 65 | 130 | 4.0 | 8.0 | 0.00 | 0.00 | 0.00 | 62 | 1010.1 |
| 20260507133019 | 65 | 124 | 5.0 | 10.0 | 0.00 | 0.00 | 0.00 | 62 | 1010.1 |
| 20260507132523 | 65 | 124 | 5.0 | 10.0 | 0.00 | 0.00 | 0.00 | 62 | 1010.1 |
| 20260507132519 | 65 | 68 | 3.0 | 10.0 | 0.00 | 0.00 | 0.00 | 61 | 1010.1 |
| 20260507132020 | 66 | 69 | 5.0 | 10.0 | 0.00 | 0.00 | 0.00 | 60 | 1010.2 |
| 20260507131523 | 66 | 69 | 5.0 | 10.0 | 0.00 | 0.00 | 0.00 | 60 | 1010.2 |
| 20260507131025 | 66 | 148 | 6.0 | 12.0 | 0.00 | 0.00 | 0.00 | 59 | 1010.4 |
| 20260507131019 | 66 | 97 | 7.0 | 18.0 | 0.00 | 0.00 | 0.00 | 59 | 1010.3 |
| 20260507130521 | 66 | 97 | 7.0 | 18.0 | 0.00 | 0.00 | 0.00 | 59 | 1010.3 |
| 20260507130518 | 66 | 83 | 5.0 | 10.0 | 0.00 | 0.00 | 0.00 | 59 | 1010.4 |
| 20260507130027 | 66 | 83 | 5.0 | 10.0 | 0.00 | 0.00 | 0.00 | 59 | 1010.4 |
| 20260507130019 | 66 | 57 | 5.0 | 9.0 | 0.00 | 0.00 | 0.00 | 58 | 1010.2 |
| 20260507125525 | 66 | 57 | 5.0 | 9.0 | 0.00 | 0.00 | 0.00 | 58 | 1010.2 |
| 20260507125518 | 66 | 106 | 5.0 | 10.0 | 0.00 | 0.00 | 0.00 | 58 | 1010.3 |
| 20260507125023 | 66 | 106 | 5.0 | 10.0 | 0.00 | 0.00 | 0.00 | 58 | 1010.3 |
| 20260507125019 | 67 | 98 | 7.0 | 12.0 | 0.00 | 0.00 | 0.00 | 57 | 1010.5 |
| 20260507124516 | 67 | 98 | 7.0 | 12.0 | 0.00 | 0.00 | 0.00 | 57 | 1010.5 |
| 20260507124025 | 67 | 126 | 7.0 | 13.0 | 0.00 | 0.00 | 0.00 | 56 | 1010.4 |
| 20260507124020 | 67 | 134 | 6.0 | 22.0 | 0.00 | 0.00 | 0.00 | 55 | 1010.3 |
| 20260507123520 | 67 | 89 | 4.0 | 9.0 | 0.00 | 0.00 | 0.00 | 54 | 1010.5 |
| 20260507123019 | 67 | 89 | 4.0 | 9.0 | 0.00 | 0.00 | 0.00 | 54 | 1010.5 |
| 20260507123017 | 67 | 89 | 4.0 | 9.0 | 0.00 | 0.00 | 0.00 | 54 | 1010.5 |
| 20260507122519 | 67 | 116 | 6.0 | 13.0 | 0.00 | 0.00 | 0.00 | 53 | 1010.5 |
| 20260507122018 | 67 | 116 | 6.0 | 13.0 | 0.00 | 0.00 | 0.00 | 53 | 1010.5 |
| 20260507121525 | 67 | 124 | 6.0 | 13.0 | 0.00 | 0.00 | 0.00 | 52 | 1010.4 |
| 20260507121023 | 67 | 85 | 5.0 | 11.0 | 0.00 | 0.00 | 0.00 | 52 | 1010.3 |
| 20260507121020 | 68 | 71 | 5.0 | 10.0 | 0.00 | 0.00 | 0.00 | 51 | 1010.4 |
| 20260507120522 | 68 | 71 | 5.0 | 10.0 | 0.00 | 0.00 | 0.00 | 51 | 1010.4 |
| 20260507120518 | 68 | 104 | 6.0 | 22.0 | 0.00 | 0.00 | 0.00 | 50 | 1010.3 |
| 20260507120024 | 68 | 104 | 6.0 | 22.0 | 0.00 | 0.00 | 0.00 | 50 | 1010.3 |
| 20260507120020 | 68 | 142 | 7.0 | 17.0 | 0.00 | 0.00 | 0.00 | 51 | 1010.4 |
| 20260507115519 | 68 | 142 | 7.0 | 17.0 | 0.00 | 0.00 | 0.00 | 51 | 1010.4 |
| 20260507115022 | 68 | 115 | 5.0 | 10.0 | 0.00 | 0.00 | 0.00 | 50 | 1010.6 |
| 20260507115019 | 68 | 107 | 6.0 | 10.0 | 0.00 | 0.00 | 0.00 | 50 | 1010.5 |
| 20260507114520 | 68 | 107 | 6.0 | 10.0 | 0.00 | 0.00 | 0.00 | 50 | 1010.5 |
| 20260507114023 | 68 | 65 | 4.0 | 7.0 | 0.00 | 0.00 | 0.00 | 50 | 1010.3 |
| 20260507114018 | 67 | 87 | 5.0 | 11.0 | 0.00 | 0.00 | 0.00 | 52 | 1010.5 |
| 20260507113524 | 67 | 87 | 5.0 | 11.0 | 0.00 | 0.00 | 0.00 | 52 | 1010.5 |
| 20260507113518 | 67 | 44 | 4.0 | 8.0 | 0.00 | 0.00 | 0.00 | 53 | 1010.3 |
| 20260507113018 | 67 | 44 | 4.0 | 8.0 | 0.00 | 0.00 | 0.00 | 53 | 1010.3 |
| 20260507113016 | 67 | 44 | 4.0 | 8.0 | 0.00 | 0.00 | 0.00 | 53 | 1010.3 |
| 20260507112519 | 67 | 88 | 4.0 | 9.0 | 0.00 | 0.00 | 0.00 | 50 | 1010.6 |
| 20260507112018 | 68 | 51 | 7.0 | 11.0 | 0.00 | 0.00 | 0.00 | 48 | 1010.6 |
| 20260507111522 | 68 | 51 | 7.0 | 11.0 | 0.00 | 0.00 | 0.00 | 48 | 1010.6 |
| 20260507111023 | 68 | 102 | 4.0 | 10.0 | 0.00 | 0.00 | 0.00 | 47 | 1010.7 |
| 20260507111018 | 68 | 54 | 4.0 | 10.0 | 0.00 | 0.00 | 0.00 | 46 | 1010.6 |
| 20260507110519 | 68 | 54 | 4.0 | 10.0 | 0.00 | 0.00 | 0.00 | 46 | 1010.6 |
| 20260507110516 | 68 | 54 | 4.0 | 10.0 | 0.00 | 0.00 | 0.00 | 46 | 1010.6 |
| 20260507110025 | 68 | 112 | 5.0 | 10.0 | 0.00 | 0.00 | 0.00 | 44 | 1010.6 |
| 20260507110019 | 68 | 136 | 5.0 | 11.0 | 0.00 | 0.00 | 0.00 | 43 | 1010.4 |
| 20260507105523 | 68 | 136 | 5.0 | 11.0 | 0.00 | 0.00 | 0.00 | 43 | 1010.4 |
| 20260507105519 | 69 | 120 | 6.0 | 11.0 | 0.00 | 0.00 | 0.00 | 42 | 1010.4 |
| 20260507105018 | 69 | 120 | 6.0 | 11.0 | 0.00 | 0.00 | 0.00 | 42 | 1010.4 |
| 20260507104540 | 69 | 81 | 4.0 | 12.0 | 0.00 | 0.00 | 0.00 | 42 | 1010.5 |
| 20260507104519 | 69 | 111 | 6.0 | 10.0 | 0.00 | 0.00 | 0.00 | 41 | 1010.8 |
| 20260507104023 | 69 | 111 | 6.0 | 10.0 | 0.00 | 0.00 | 0.00 | 41 | 1010.8 |
| 20260507104020 | 69 | 135 | 6.0 | 11.0 | 0.00 | 0.00 | 0.00 | 42 | 1010.8 |
| 20260507103522 | 69 | 135 | 6.0 | 11.0 | 0.00 | 0.00 | 0.00 | 42 | 1010.8 |
| 20260507103019 | 69 | 143 | 4.0 | 9.0 | 0.00 | 0.00 | 0.00 | 43 | 1010.6 |
| 20260507103017 | 69 | 150 | 4.0 | 10.0 | 0.00 | 0.00 | 0.00 | 42 | 1010.5 |
| 20260507102526 | 69 | 143 | 4.0 | 9.0 | 0.00 | 0.00 | 0.00 | 43 | 1010.6 |
| 20260507102020 | 69 | 144 | 5.0 | 15.0 | 0.00 | 0.00 | 0.00 | 42 | 1010.6 |
| 20260507101524 | 69 | 144 | 5.0 | 15.0 | 0.00 | 0.00 | 0.00 | 42 | 1010.6 |
| 20260507101520 | 69 | 81 | 2.0 | 7.0 | 0.00 | 0.00 | 0.00 | 42 | 1010.7 |
| 20260507101023 | 69 | 81 | 2.0 | 7.0 | 0.00 | 0.00 | 0.00 | 42 | 1010.7 |
| 20260507101021 | 70 | 31 | 3.0 | 9.0 | 0.00 | 0.00 | 0.00 | 42 | 1010.8 |
| 20260507100521 | 69 | 111 | 3.0 | 10.0 | 0.00 | 0.00 | 0.00 | 43 | 1010.6 |
| 20260507100021 | 69 | 65 | 3.0 | 9.0 | 0.00 | 0.00 | 0.00 | 42 | 1010.8 |
| 20260507100019 | 69 | 111 | 3.0 | 10.0 | 0.00 | 0.00 | 0.00 | 43 | 1010.6 |
| 20260507095520 | 69 | 65 | 3.0 | 9.0 | 0.00 | 0.00 | 0.00 | 42 | 1010.8 |
| 20260507095019 | 70 | 72 | 6.0 | 21.0 | 0.00 | 0.00 | 0.00 | 41 | 1010.8 |
| 20260507094521 | 70 | 72 | 6.0 | 21.0 | 0.00 | 0.00 | 0.00 | 41 | 1010.8 |
| 20260507094023 | 69 | 359 | 7.0 | 13.0 | 0.00 | 0.00 | 0.00 | 41 | 1010.9 |
| 20260507094021 | 69 | 88 | 9.0 | 15.0 | 0.00 | 0.00 | 0.00 | 43 | 1010.9 |
| 20260507093520 | 69 | 107 | 9.0 | 15.0 | 0.00 | 0.00 | 0.00 | 42 | 1010.9 |
| 20260507093021 | 69 | 99 | 9.0 | 20.0 | 0.00 | 0.00 | 0.00 | 42 | 1010.8 |
| 20260507093019 | 69 | 107 | 9.0 | 15.0 | 0.00 | 0.00 | 0.00 | 42 | 1010.9 |
| 20260507092515 | 69 | 99 | 9.0 | 20.0 | 0.00 | 0.00 | 0.00 | 42 | 1010.8 |
| 20260507092025 | 68 | 65 | 11.0 | 28.0 | 0.00 | 0.00 | 0.00 | 42 | 1011.0 |
| 20260507092019 | 68 | 26 | 10.0 | 24.0 | 0.00 | 0.00 | 0.00 | 44 | 1010.8 |
| 20260507091524 | 68 | 26 | 10.0 | 24.0 | 0.00 | 0.00 | 0.00 | 44 | 1010.8 |
| 20260507091022 | 68 | 70 | 8.0 | 15.0 | 0.00 | 0.00 | 0.00 | 45 | 1010.8 |
| 20260507091015 | 68 | 70 | 8.0 | 15.0 | 0.00 | 0.00 | 0.00 | 45 | 1010.8 |
| 20260507090525 | 69 | 61 | 5.0 | 14.0 | 0.00 | 0.00 | 0.00 | 44 | 1010.7 |
| 20260507090519 | 69 | 7 | 5.0 | 12.0 | 0.00 | 0.00 | 0.00 | 44 | 1010.7 |
| 20260507090024 | 69 | 7 | 5.0 | 12.0 | 0.00 | 0.00 | 0.00 | 44 | 1010.7 |
| 20260507090019 | 68 | 3 | 8.0 | 19.0 | 0.00 | 0.00 | 0.00 | 44 | 1010.8 |
| 20260507085521 | 68 | 52 | 12.0 | 23.0 | 0.00 | 0.00 | 0.00 | 44 | 1011.0 |
| 20260507085043 | 68 | 52 | 12.0 | 23.0 | 0.00 | 0.00 | 0.00 | 44 | 1011.0 |
| 20260507085021 | 68 | 39 | 9.0 | 17.0 | 0.00 | 0.00 | 0.00 | 44 | 1010.9 |
| 20260507084524 | 68 | 39 | 9.0 | 17.0 | 0.00 | 0.00 | 0.00 | 44 | 1010.9 |
| 20260507084020 | 68 | 65 | 9.0 | 19.0 | 0.00 | 0.00 | 0.00 | 45 | 1011.0 |
| 20260507083540 | 68 | 114 | 10.0 | 22.0 | 0.00 | 0.00 | 0.00 | 44 | 1011.0 |
| 20260507083522 | 68 | 65 | 9.0 | 19.0 | 0.00 | 0.00 | 0.00 | 45 | 1011.0 |
| 20260507083021 | 67 | 89 | 8.0 | 22.0 | 0.00 | 0.00 | 0.00 | 43 | 1010.9 |
| 20260507083018 | 68 | 114 | 10.0 | 22.0 | 0.00 | 0.00 | 0.00 | 44 | 1011.0 |
| 20260507082519 | 67 | 89 | 8.0 | 22.0 | 0.00 | 0.00 | 0.00 | 43 | 1010.9 |
| 20260507082019 | 67 | 104 | 10.0 | 21.0 | 0.00 | 0.00 | 0.00 | 46 | 1011.0 |
| 20260507081517 | 67 | 68 | 8.0 | 20.0 | 0.00 | 0.00 | 0.00 | 46 | 1010.9 |
| 20260507081027 | 67 | 101 | 7.0 | 15.0 | 0.00 | 0.00 | 0.00 | 50 | 1010.9 |
| 20260507081022 | 67 | 120 | 9.0 | 24.0 | 0.00 | 0.00 | 0.00 | 48 | 1010.9 |
| 20260507080523 | 67 | 90 | 5.0 | 13.0 | 0.00 | 0.00 | 0.00 | 51 | 1010.9 |
| 20260507080520 | 67 | 101 | 7.0 | 15.0 | 0.00 | 0.00 | 0.00 | 50 | 1010.9 |
| 20260507080019 | 67 | 90 | 5.0 | 13.0 | 0.00 | 0.00 | 0.00 | 51 | 1010.9 |
| 20260507080015 | 67 | 90 | 5.0 | 13.0 | 0.00 | 0.00 | 0.00 | 51 | 1010.9 |
| 20260507075523 | 68 | 61 | 7.0 | 15.0 | 0.00 | 0.00 | 0.00 | 50 | 1011.0 |
| 20260507075518 | 68 | 92 | 4.0 | 10.0 | 0.00 | 0.00 | 0.00 | 50 | 1010.9 |
| 20260507075021 | 69 | 129 | 3.0 | 12.0 | 0.00 | 0.00 | 0.00 | 48 | 1011.0 |
| 20260507075018 | 68 | 92 | 4.0 | 10.0 | 0.00 | 0.00 | 0.00 | 50 | 1010.9 |
| 20260507074518 | 69 | 129 | 3.0 | 12.0 | 0.00 | 0.00 | 0.00 | 48 | 1011.0 |
| 20260507074021 | 68 | 98 | 3.0 | 10.0 | 0.00 | 0.00 | 0.00 | 50 | 1011.2 |
| 20260507074017 | 68 | 59 | 4.0 | 11.0 | 0.00 | 0.00 | 0.00 | 49 | 1010.9 |
| 20260507073519 | 68 | 98 | 3.0 | 10.0 | 0.00 | 0.00 | 0.00 | 50 | 1011.2 |
| 20260507073022 | 67 | 122 | 4.0 | 12.0 | 0.00 | 0.00 | 0.00 | 50 | 1011.2 |
| 20260507073020 | 67 | 145 | 5.0 | 12.0 | 0.00 | 0.00 | 0.00 | 49 | 1011.3 |
| 20260507072520 | 67 | 145 | 5.0 | 12.0 | 0.00 | 0.00 | 0.00 | 49 | 1011.3 |
| 20260507072518 | 67 | 78 | 4.0 | 8.0 | 0.00 | 0.00 | 0.00 | 50 | 1011.3 |
| 20260507072019 | 67 | 78 | 4.0 | 8.0 | 0.00 | 0.00 | 0.00 | 50 | 1011.3 |
| 20260507072017 | 67 | 78 | 4.0 | 8.0 | 0.00 | 0.00 | 0.00 | 50 | 1011.3 |
| 20260507071519 | 67 | 65 | 4.0 | 13.0 | 0.00 | 0.00 | 0.00 | 52 | 1011.4 |
| 20260507071025 | 67 | 47 | 6.0 | 18.0 | 0.00 | 0.00 | 0.00 | 52 | 1011.5 |
| 20260507071019 | 66 | 28 | 4.0 | 8.0 | 0.00 | 0.00 | 0.00 | 53 | 1011.5 |
| 20260507070522 | 66 | 28 | 4.0 | 8.0 | 0.00 | 0.00 | 0.00 | 53 | 1011.5 |
| 20260507070025 | 66 | 34 | 4.0 | 9.0 | 0.00 | 0.00 | 0.00 | 54 | 1011.5 |
| 20260507065519 | 66 | 25 | 5.0 | 11.0 | 0.00 | 0.00 | 0.00 | 55 | 1011.8 |
| 20260507065022 | 66 | 25 | 5.0 | 11.0 | 0.00 | 0.00 | 0.00 | 55 | 1011.8 |
| 20260507064522 | 66 | 5 | 6.0 | 12.0 | 0.00 | 0.00 | 0.00 | 54 | 1012.0 |
| 20260507064024 | 66 | 21 | 6.0 | 11.0 | 0.00 | 0.00 | 0.00 | 55 | 1012.1 |
| 20260507064019 | 65 | 62 | 5.0 | 11.0 | 0.00 | 0.00 | 0.00 | 54 | 1012.2 |
| 20260507063519 | 65 | 20 | 5.0 | 16.0 | 0.00 | 0.00 | 0.00 | 55 | 1012.2 |
| 20260507063020 | 65 | 20 | 5.0 | 16.0 | 0.00 | 0.00 | 0.00 | 55 | 1012.2 |
| 20260507063015 | 65 | 20 | 5.0 | 16.0 | 0.00 | 0.00 | 0.00 | 55 | 1012.2 |
| 20260507062537 | 65 | 29 | 6.0 | 12.0 | 0.00 | 0.00 | 0.00 | 55 | 1012.2 |
| 20260507062520 | 65 | 29 | 6.0 | 12.0 | 0.00 | 0.00 | 0.00 | 55 | 1012.2 |
| 20260507062019 | 65 | 360 | 5.0 | 12.0 | 0.00 | 0.00 | 0.00 | 56 | 1012.2 |
| 20260507062016 | 65 | 360 | 5.0 | 12.0 | 0.00 | 0.00 | 0.00 | 56 | 1012.2 |
| 20260507061515 | 65 | 16 | 2.0 | 6.0 | 0.00 | 0.00 | 0.00 | 56 | 1012.3 |
| 20260507061020 | 64 | 330 | 3.0 | 7.0 | 0.00 | 0.00 | 0.00 | 56 | 1012.2 |
| 20260507060522 | 63 | 22 | 5.0 | 13.0 | 0.00 | 0.00 | 0.00 | 56 | 1012.4 |
| 20260507060021 | 63 | 31 | 5.0 | 11.0 | 0.00 | 0.00 | 0.00 | 60 | 1012.4 |
| 20260507060017 | 63 | 21 | 3.0 | 9.0 | 0.00 | 0.00 | 0.00 | 59 | 1012.4 |
| 20260507055521 | 63 | 31 | 5.0 | 11.0 | 0.00 | 0.00 | 0.00 | 60 | 1012.4 |
| 20260507055024 | 62 | 31 | 3.0 | 9.0 | 0.00 | 0.00 | 0.00 | 63 | 1012.2 |
| 20260507055022 | 62 | 341 | 3.0 | 8.0 | 0.00 | 0.00 | 0.00 | 64 | 1012.3 |
| 20260507054515 | 62 | 341 | 3.0 | 8.0 | 0.00 | 0.00 | 0.00 | 64 | 1012.3 |
| 20260507054035 | 62 | 349 | 4.0 | 11.0 | 0.00 | 0.00 | 0.00 | 65 | 1012.3 |
| 20260507054018 | 62 | 349 | 4.0 | 11.0 | 0.00 | 0.00 | 0.00 | 65 | 1012.3 |
| 20260507053520 | 62 | 35 | 4.0 | 8.0 | 0.00 | 0.00 | 0.00 | 69 | 1012.3 |
| 20260507053045 | 62 | 35 | 4.0 | 8.0 | 0.00 | 0.00 | 0.00 | 69 | 1012.3 |
| 20260507052522 | 61 | 348 | 2.0 | 6.0 | 0.00 | 0.00 | 0.00 | 71 | 1012.2 |
| 20260507052024 | 61 | 352 | 2.0 | 6.0 | 0.00 | 0.00 | 0.00 | 72 | 1012.3 |
| 20260507052018 | 61 | 0 | 2.0 | 6.0 | 0.00 | 0.00 | 0.00 | 73 | 1012.4 |
| 20260507051523 | 61 | 0 | 2.0 | 6.0 | 0.00 | 0.00 | 0.00 | 73 | 1012.4 |
| 20260507051020 | 60 | 319 | 1.0 | 4.0 | 0.00 | 0.00 | 0.00 | 73 | 1012.4 |
| 20260507050523 | 60 | 334 | 0.0 | 3.0 | 0.00 | 0.00 | 0.00 | 73 | 1012.2 |
| 20260507050519 | 60 | 315 | 0.0 | 2.0 | 0.00 | 0.00 | 0.00 | 73 | 1012.2 |
| 20260507050016 | 60 | 315 | 0.0 | 2.0 | 0.00 | 0.00 | 0.00 | 73 | 1012.2 |
| 20260507045543 | 60 | 0.0 | 0.0 | 0.00 | 0.00 | 0.00 | 73 | 1012.3 | |
| 20260507045519 | 61 | 293 | 0.0 | 2.0 | 0.00 | 0.00 | 0.00 | 73 | 1012.4 |
| 20260507045039 | 61 | 293 | 0.0 | 2.0 | 0.00 | 0.00 | 0.00 | 73 | 1012.4 |
| 20260507044523 | 61 | 3 | 2.0 | 6.0 | 0.00 | 0.00 | 0.00 | 72 | 1012.5 |
| 20260507044520 | 61 | 26 | 4.0 | 11.0 | 0.00 | 0.00 | 0.00 | 71 | 1012.6 |
| 20260507044021 | 61 | 106 | 4.0 | 9.0 | 0.00 | 0.00 | 0.00 | 70 | 1012.6 |
| 20260507043539 | 61 | 106 | 4.0 | 9.0 | 0.00 | 0.00 | 0.00 | 70 | 1012.6 |
| 20260507043020 | 61 | 72 | 3.0 | 7.0 | 0.00 | 0.00 | 0.00 | 67 | 1012.5 |
| 20260507042542 | 61 | 72 | 3.0 | 7.0 | 0.00 | 0.00 | 0.00 | 67 | 1012.5 |
| 20260507042019 | 61 | 346 | 1.0 | 4.0 | 0.00 | 0.00 | 0.00 | 65 | 1012.6 |
| 20260507041546 | 61 | 346 | 1.0 | 4.0 | 0.00 | 0.00 | 0.00 | 65 | 1012.6 |
| 20260507041017 | 61 | 346 | 1.0 | 5.0 | 0.00 | 0.00 | 0.00 | 65 | 1012.6 |
| 20260507040524 | 61 | 26 | 3.0 | 8.0 | 0.00 | 0.00 | 0.00 | 65 | 1012.5 |
| 20260507040036 | 61 | 25 | 3.0 | 8.0 | 0.00 | 0.00 | 0.00 | 66 | 1012.5 |
| 20260507040019 | 61 | 25 | 3.0 | 8.0 | 0.00 | 0.00 | 0.00 | 66 | 1012.5 |
| 20260507035536 | 61 | 32 | 1.0 | 4.0 | 0.00 | 0.00 | 0.00 | 66 | 1012.4 |
| 20260507035518 | 61 | 32 | 1.0 | 4.0 | 0.00 | 0.00 | 0.00 | 66 | 1012.4 |
| 20260507035025 | 61 | 333 | 1.0 | 5.0 | 0.00 | 0.00 | 0.00 | 66 | 1012.4 |
| 20260507035020 | 61 | 330 | 4.0 | 7.0 | 0.00 | 0.00 | 0.00 | 67 | 1012.4 |
| 20260507034522 | 61 | 330 | 4.0 | 7.0 | 0.00 | 0.00 | 0.00 | 67 | 1012.4 |
| 20260507034025 | 61 | 293 | 0.0 | 2.0 | 0.00 | 0.00 | 0.00 | 69 | 1012.4 |
| 20260507033519 | 60 | 301 | 3.0 | 7.0 | 0.00 | 0.00 | 0.00 | 72 | 1012.4 |
| 20260507033515 | 60 | 301 | 3.0 | 7.0 | 0.00 | 0.00 | 0.00 | 72 | 1012.4 |
| 20260507033040 | 60 | 24 | 1.0 | 4.0 | 0.00 | 0.00 | 0.00 | 77 | 1012.4 |
| 20260507032537 | 60 | 78 | 1.0 | 4.0 | 0.00 | 0.00 | 0.00 | 80 | 1012.3 |
| 20260507032522 | 59 | 92 | 1.0 | 4.0 | 0.00 | 0.00 | 0.00 | 84 | 1012.3 |
| 20260507032019 | 59 | 92 | 1.0 | 4.0 | 0.00 | 0.00 | 0.00 | 84 | 1012.3 |
| 20260507032016 | 59 | 92 | 1.0 | 4.0 | 0.00 | 0.00 | 0.00 | 84 | 1012.3 |
| 20260507031522 | 58 | 8 | 1.0 | 4.0 | 0.00 | 0.00 | 0.00 | 86 | 1012.3 |
| 20260507031045 | 58 | 0.0 | 0.0 | 0.00 | 0.00 | 0.00 | 87 | 1012.3 | |
| 20260507030521 | 58 | 308 | 0.0 | 2.0 | 0.00 | 0.00 | 0.00 | 88 | 1012.2 |
| 20260507030134 | 58 | 293 | 0.0 | 2.0 | 0.00 | 0.00 | 0.00 | 88 | 1012.0 |
| 20260507025524 | 58 | 346 | 2.0 | 4.0 | 0.00 | 0.00 | 0.00 | 88 | 1012.2 |
| 20260507025518 | 59 | 299 | 1.0 | 4.0 | 0.00 | 0.00 | 0.00 | 88 | 1012.2 |
| 20260507025019 | 59 | 299 | 1.0 | 4.0 | 0.00 | 0.00 | 0.00 | 88 | 1012.2 |
| 20260507025016 | 59 | 299 | 1.0 | 4.0 | 0.00 | 0.00 | 0.00 | 88 | 1012.2 |
| 20260507024537 | 59 | 338 | 0.0 | 2.0 | 0.00 | 0.00 | 0.00 | 88 | 1012.2 |
| 20260507024017 | 58 | 0.0 | 0.0 | 0.00 | 0.00 | 0.00 | 88 | 1012.1 | |
| 20260507023517 | 58 | 134 | 0.0 | 4.0 | 0.00 | 0.00 | 0.00 | 88 | 1012.0 |
| 20260507023022 | 58 | 116 | 1.0 | 3.0 | 0.00 | 0.00 | 0.00 | 88 | 1012.0 |
| 20260507022520 | 58 | 180 | 0.0 | 2.0 | 0.00 | 0.00 | 0.00 | 88 | 1012.1 |
| 20260507022016 | 58 | 141 | 1.0 | 5.0 | 0.00 | 0.00 | 0.00 | 88 | 1012.1 |
| 20260507021515 | 58 | 90 | 0.0 | 1.0 | 0.00 | 0.00 | 0.00 | 87 | 1012.0 |
| 20260507021020 | 59 | 348 | 1.0 | 3.0 | 0.00 | 0.00 | 0.00 | 87 | 1012.3 |
| 20260507020524 | 59 | 338 | 0.0 | 3.0 | 0.00 | 0.00 | 0.00 | 87 | 1012.4 |
| 20260507020134 | 59 | 340 | 1.0 | 3.0 | 0.00 | 0.00 | 0.00 | 87 | 1012.4 |
| 20260507020021 | 59 | 356 | 1.0 | 3.0 | 0.00 | 0.00 | 0.00 | 87 | 1012.4 |
| 20260507015521 | 59 | 37 | 2.0 | 6.0 | 0.00 | 0.00 | 0.00 | 86 | 1012.4 |
| 20260507015518 | 59 | 356 | 1.0 | 3.0 | 0.00 | 0.00 | 0.00 | 87 | 1012.4 |
| 20260507015019 | 59 | 128 | 2.0 | 5.0 | 0.00 | 0.00 | 0.00 | 86 | 1012.3 |
| 20260507014518 | 59 | 128 | 2.0 | 5.0 | 0.00 | 0.00 | 0.00 | 86 | 1012.3 |
| 20260507014043 | 59 | 0.0 | 0.0 | 0.00 | 0.00 | 0.00 | 85 | 1012.4 | |
| 20260507013522 | 59 | 0 | 0.0 | 1.0 | 0.00 | 0.00 | 0.00 | 84 | 1012.5 |
| 20260507013520 | 59 | 0 | 0.0 | 3.0 | 0.00 | 0.00 | 0.00 | 85 | 1012.4 |
| 20260507012524 | 59 | 0 | 0.0 | 1.0 | 0.00 | 0.00 | 0.00 | 84 | 1012.5 |
| 20260507012521 | 59 | 0 | 0.0 | 2.0 | 0.00 | 0.00 | 0.00 | 83 | 1012.5 |
| 20260507012026 | 59 | 0 | 0.0 | 2.0 | 0.00 | 0.00 | 0.00 | 83 | 1012.5 |
| 20260507012021 | 59 | 357 | 1.0 | 4.0 | 0.00 | 0.00 | 0.00 | 83 | 1012.5 |
| 20260507011515 | 59 | 357 | 1.0 | 4.0 | 0.00 | 0.00 | 0.00 | 83 | 1012.5 |
| 20260507011021 | 59 | 47 | 0.0 | 3.0 | 0.00 | 0.00 | 0.00 | 83 | 1012.6 |
| 20260507010524 | 59 | 47 | 0.0 | 3.0 | 0.00 | 0.00 | 0.00 | 83 | 1012.6 |
| 20260507010520 | 59 | 147 | 1.0 | 4.0 | 0.00 | 0.00 | 0.00 | 83 | 1012.8 |
| 20260507010154 | 59 | 147 | 1.0 | 4.0 | 0.00 | 0.00 | 0.00 | 83 | 1012.8 |
| 20260507010018 | 59 | 106 | 0.0 | 2.0 | 0.00 | 0.00 | 0.00 | 83 | 1012.8 |
| 20260507005517 | 59 | 106 | 0.0 | 2.0 | 0.00 | 0.00 | 0.00 | 83 | 1012.8 |
| 20260507005018 | 59 | 55 | 0.0 | 2.0 | 0.00 | 0.00 | 0.00 | 83 | 1012.8 |
| 20260507004546 | 59 | 55 | 0.0 | 2.0 | 0.00 | 0.00 | 0.00 | 83 | 1012.8 |
| 20260507004024 | 59 | 3 | 0.0 | 4.0 | 0.00 | 0.00 | 0.00 | 82 | 1012.8 |
| 20260507003524 | 60 | 90 | 0.0 | 2.0 | 0.00 | 0.00 | 0.00 | 82 | 1012.8 |
| 20260507003519 | 60 | 39 | 1.0 | 4.0 | 0.00 | 0.00 | 0.00 | 82 | 1012.8 |
| 20260507003021 | 60 | 159 | 1.0 | 5.0 | 0.00 | 0.00 | 0.00 | 82 | 1012.8 |
| 20260507002525 | 60 | 159 | 1.0 | 5.0 | 0.00 | 0.00 | 0.00 | 82 | 1012.8 |
| 20260507002042 | 60 | 56 | 1.0 | 3.0 | 0.00 | 0.00 | 0.00 | 82 | 1012.8 |
| 20260507001542 | 60 | 47 | 1.0 | 6.0 | 0.00 | 0.00 | 0.00 | 82 | 1012.8 |
| 20260507001022 | 60 | 125 | 1.0 | 5.0 | 0.00 | 0.00 | 0.00 | 81 | 1012.9 |
| 20260507000520 | 60 | 70 | 0.0 | 3.0 | 0.00 | 0.00 | 0.00 | 81 | 1012.8 |
| 20260507000516 | 60 | 70 | 0.0 | 3.0 | 0.00 | 0.00 | 0.00 | 81 | 1012.8 |
| 20260507000135 | 60 | 51 | 0.0 | 1.0 | 0.00 | 0.00 | 0.00 | 80 | 1012.9 |
| 20260507000020 | 60 | 0.0 | 0.0 | 0.00 | 0.00 | 0.00 | 80 | 1012.9 | |
| 20260506235520 | 60 | 112 | 0.0 | 3.0 | 0.00 | 0.00 | 0.00 | 80 | 1012.9 |
| 20260506235518 | 60 | 0.0 | 0.0 | 0.00 | 0.00 | 0.00 | 80 | 1012.9 | |
| 20260506235020 | 60 | 112 | 0.0 | 3.0 | 0.00 | 0.00 | 0.00 | 80 | 1012.9 |
| 20260506235018 | 60 | 158 | 0.0 | 4.0 | 0.00 | 0.00 | 0.00 | 80 | 1013.0 |
| 20260506234524 | 60 | 158 | 0.0 | 4.0 | 0.00 | 0.00 | 0.00 | 80 | 1013.0 |
| 20260506234022 | 60 | 52 | 2.0 | 5.0 | 0.00 | 0.00 | 0.00 | 80 | 1013.0 |
| 20260506234019 | 60 | 160 | 2.0 | 10.0 | 0.00 | 0.00 | 0.00 | 79 | 1013.0 |
| 20260506233519 | 60 | 160 | 2.0 | 10.0 | 0.00 | 0.00 | 0.00 | 79 | 1013.0 |
| 20260506233019 | 60 | 25 | 1.0 | 6.0 | 0.00 | 0.00 | 0.00 | 79 | 1012.9 |
| 20260506233016 | 60 | 25 | 1.0 | 6.0 | 0.00 | 0.00 | 0.00 | 79 | 1012.9 |
| 20260506232538 | 60 | 117 | 0.0 | 2.0 | 0.00 | 0.00 | 0.00 | 78 | 1012.9 |
| 20260506232522 | 60 | 355 | 1.0 | 6.0 | 0.00 | 0.00 | 0.00 | 78 | 1012.9 |
| 20260506232019 | 60 | 155 | 1.0 | 7.0 | 0.00 | 0.00 | 0.00 | 79 | 1013.0 |
| 20260506231519 | 60 | 315 | 0.0 | 3.0 | 0.00 | 0.00 | 0.00 | 79 | 1013.0 |
| 20260506231022 | 60 | 315 | 0.0 | 3.0 | 0.00 | 0.00 | 0.00 | 79 | 1013.0 |
| 20260506231020 | 60 | 135 | 0.0 | 1.0 | 0.00 | 0.00 | 0.00 | 79 | 1013.0 |
| 20260506230524 | 60 | 135 | 0.0 | 1.0 | 0.00 | 0.00 | 0.00 | 79 | 1013.0 |
| 20260506230520 | 60 | 144 | 1.0 | 7.0 | 0.00 | 0.00 | 0.00 | 79 | 1012.8 |
| 20260506230022 | 60 | 144 | 1.0 | 7.0 | 0.00 | 0.00 | 0.00 | 79 | 1012.8 |
| 20260506225524 | 60 | 104 | 0.0 | 3.0 | 0.00 | 0.00 | 0.00 | 79 | 1012.8 |
| 20260506225516 | 60 | 104 | 0.0 | 3.0 | 0.00 | 0.00 | 0.00 | 79 | 1012.8 |
| 20260506225022 | 60 | 18 | 1.0 | 7.0 | 0.00 | 0.00 | 0.00 | 78 | 1012.8 |
| 20260506224522 | 60 | 114 | 1.0 | 5.0 | 0.00 | 0.00 | 0.00 | 78 | 1012.7 |